sat.trackr.live / text

‹ back to catalog

STARLINK-36748

NORAD 67693 · 2026-025A

PAYLOAD ACTIVE UNKNOWN

§ Identity

Operator
Country
US
Launch date
2026-02-07
Launch site
AFWTR
Launch vehicle
Mass (kg)
RCS (m²)

Purposes: comms

External: N2YO · Heavens-Above · Gunter

§ Orbital elements

Epoch: 2026-05-25T00:32:49.106976Z

Period
93.91 min
Inclination
97.2866°
Eccentricity
0.0001243
Mean motion
15.33432957 rev/d
Perigee alt
464.7 km
Apogee alt
466.4 km
Semi-major
6,843.7 km
B*
4.4684e-4
RAAN
256.6782°
Arg perigee
110.5435°
Mean anomaly
249.5941°
Rev number
1,771

§ Raw data

STARLINK-367481 67693U 26025A   26145.02279059  .00014373  00000+0  44684-3 0  99942 67693  97.2866 256.6782 0001243 110.5435 249.5941 15.33432957 17718

JSON: /api/v1/satellites/67693 · /tle

For live sub-satellite position, see the globe view (requires WebGL).

§ Visibility from observer

Set your observer location to see the next 7 days of passes ≥ 10°. The values pass through the URL so the page stays shareable.

No JS? Fill the form by hand. The geolocation button needs JavaScript.